Terminal Aerodrome Forecast
Issued by NWS Jackson, MS

Home | Current Version | Previous Version | Text Only | Print | Product List | Glossary On
Versions: 1 2 3 4 5 6 7 8 9 10 11 12 13 14 15 16 17 18 19
000
FTUS44 KJAN 262320
TAFGLH
TAF
KGLH 262320Z 2700/2724 17009KT P6SM SCT045
     FM270500 14006KT P6SM OVC050
     FM270800 13005KT P6SM OVC015
     FM271200 16010KT P6SM OVC020
     FM271600 17012G20KT P6SM OVC050=

USA.gov is the U.S. government's official web portal to all federal, state and local government web resources and services.